Powrót do katalogu

HAINAN-1 01

AktywnyNaukaPO
NORAD 51825·PAYLOAD·🇨🇳 China
Ta nazwa satelity nie została jeszcze potwierdzona przez oficjalne źródła.

Wystrzelony Feb 27, 2022 z Wenchang Space Launch Site

Loading…

Następne Przeloty (najbliższe 24 godziny)

TLE

ŚwieżeSource: Space-Track

Epoka: Sep 11, 2026, 23:38 UTC

1 51825U 22019B   26254.98526623  .05925279  24873-5  55233-3 0  9994
2 51825  97.3166 354.2449 0012094 269.7432  90.2481 16.38561643253563

Śledź HAINAN-1 01 w czasie rzeczywistym z AllMySat

Download on the App Store